Current weather by "City, St" or "zip code"  
 
Advertise Here

Current Conditions: Stuart Powell Field Airport, KY

Drizzle


37.0 F

Last Updated on Jan 25 2021, 5:55 am EST
Humidity: 100%
Wind Speed: E 6.9 mph
Barometer 29.98 in
Dewpoint: 37.4 F
Visibility: 3.00 mi
Precip: --
Heat Index: NA
Wind Chill: 32 F
Current conditions at:

Stuart Powell Field Airport, KY (KDVK)

Lat: 37.5775751 Lon: 84.7694978

Local Radar Image active severe weather and emergency alerts image image weather storm and storm spotter reports image weather observation monitoring service image
Local
Radar
Active
Alerts
Storm Reports Obs
Monitoring

Sign-up For Email & Text Message Weather Alert Notification Services


Advertise Here

Observation History for Stuart Powell Field Airport, KY


Time Wind
(mph)
Vis
(mi)
Weather Precip (in) Temperature (F) Relative
Humidity
Wind
Chill
(F)
Heat
Index
(F)
Pressure
Air Dwpt altimeter
(in)
sea level
(mb)
Rmks
5:55 am EST E 6.9 3.00 Drizzle -- 37.0 37.4 100% 32 NA 29.98 M
5:35 am EST NE 4.6 3.00 Fog/Mist -- 37.0 37.4 100% 33 NA 30.01 M
4:55 am EST N 0.0 1.75 Fog/Mist -- 39.0 39.2 100% NA NA 30.01 M
3:55 am EST N 0.0 0.75 Fog/Mist -- 39.0 39.2 100% NA NA 30.04 M
2:55 am EST N 0.0 0.50 Fog -- 41.0 39.2 93% NA NA 30.03 M
1:55 am EST N 0.0 0.50 Fog -- 41.0 39.2 93% NA NA 30.02 M
1:35 am EST N 0.0 0.50 Fog -- 41.0 41.0 100% NA NA 30.02 M
12:55 am EST N 0.0 0.50 Fog -- 41.0 41.0 100% NA NA 30.04 M
12:35 am EST N 0.0 0.75 Fog/Mist -- 41.0 41.0 100% NA NA 30.04 M
11:55 pm EST N 0.0 1.00 Fog/Mist -- 41.0 41.0 100% NA NA 30.06 M
11:35 pm EST N 0.0 1.50 Fog/Mist -- 41.0 41.0 100% NA NA 30.06 M
10:55 pm EST N 0.0 1.25 Light Drizzle -- 41.0 41.0 100% NA NA 30.06 M
9:55 pm EST N 0.0 2.50 Drizzle -- 41.0 41.0 100% NA NA 30.07 M
8:55 pm EST N 0.0 2.50 Fog/Mist -- 41.0 41.0 100% NA NA 30.07 M
8:35 pm EST N 0.0 2.50 Light Drizzle -- 41.0 41.0 100% NA NA 30.07 M
7:55 pm EST N 0.0 3.00 Fog/Mist -- 41.0 41.0 100% NA NA 30.08 M
6:55 pm EST N 0.0 10.00 Overcast -- 43.0 41.0 93% NA NA 30.06 M
6:35 pm EST N 0.0 10.00 Overcast -- 43.0 39.2 87% NA NA 30.06 M
5:55 pm EST N 0.0 10.00 Overcast -- 43.0 39.2 87% NA NA 30.06 M
4:55 pm EST SW 5.8 10.00 Overcast -- 43.0 37.4 81% 39 NA 30.05 M
3:55 pm EST SW 5.8 10.00 Overcast -- 45.0 37.4 76% 42 NA 30.05 M
3:35 pm EST N 0.0 10.00 Overcast -- 43.0 37.4 81% NA NA 30.05 M
2:55 pm EST N 0.0 10.00 Overcast -- 43.0 35.6 76% NA NA 30.06 M
1:55 pm EST N 0.0 10.00 Drizzle -- 39.0 33.8 81% NA NA 30.07 M

Regional Weather Observation


Lebanon-Springfield Airport, KY (K6I2)

Fog/Mist
39.0 F

Samuels Field Airport, KY (KBRY)

Overcast
36.0 F

Central Kentucky Regional Airport, KY (KRGA)

Overcast
37.0 F

Central Kentucky Regional Airport, KY (KRGA)

Overcast
37.0 F

Taylor County Airport, KY (KAAS)

Overcast
43.0 F

Lexington Blue Grass Airport, KY (KLEX)

Fog/Mist
34.0 F